• MPC Preparation (Info)

  • MPEC 2019-G144: 2019 GA6

    The following Minor Planet Electronic Circular may be linked-to from your own Web pages, but must not otherwise be redistributed electronically.

    A form allowing access to any MPEC is at the bottom of this page.


    Read MPEC 2019-G143 Read MPEC 2019-G145


    M.P.E.C. 2019-G144                               Issued 2019 Apr.  9, 22:56 UT
    
         The Minor Planet Electronic Circulars contain information on unusual
             minor planets and routine data on comets.  They are published
        on behalf of Division F of the International Astronomical Union by the
              Minor Planet Center, Smithsonian Astrophysical Observatory,
                              Cambridge, MA 02138, U.S.A.
    
                 Prepared using the Tamkin Foundation Computer Network
    
                                  MPC@CFA.HARVARD.EDU
                URL https://www.minorplanetcenter.net/    ISSN 1523-6714
    
                                       2019 GA6
    
    Observations:
         K19G06A  C2019 04 02.52676414 13 11.504+03 55 00.93         21.8 GVEG144F51
         K19G06A  C2019 04 02.53836314 13 13.325+03 55 52.12         21.4 GVEG144F51
         K19G06A  C2019 04 02.54995214 13 15.173+03 56 43.61         21.2 GVEG144F51
         K19G06A  C2019 04 02.56148514 13 17.004+03 57 34.98         21.6 GVEG144F51
         K19G06A* C2019 04 08.53509 14 35 58.972+13 19 57.21         22.1 wUEG144F51
         K19G06A  C2019 04 08.54715 14 36 02.072+13 21 21.81         20.8 wUEG144F51
         K19G06A  C2019 04 08.55926 14 36 05.206+13 22 46.67         21.0 wUEG144F51
         K19G06A  C2019 04 08.97851 14 38 11.24 +14 12 10.2          20.9 VVEG144033
         K19G06A  C2019 04 08.98034 14 38 11.76 +14 12 23.4          21.8 VVEG144033
         K19G06A  C2019 04 08.98218 14 38 12.27 +14 12 36.8          21.8 VVEG144033
         K19G06A  C2019 04 08.98401 14 38 12.77 +14 12 50.3          22.1 VVEG144033
         K19G06A  C2019 04 08.98585 14 38 13.28 +14 13 03.7          21.8 VVEG144033
         K19G06A  C2019 04 08.98793 14 38 13.86 +14 13 18.8          22.0 VVEG144033
         K19G06A  C2019 04 08.98976 14 38 14.41 +14 13 32.1          21.6 VVEG144033
         K19G06A  C2019 04 08.99160 14 38 14.90 +14 13 45.2          21.1 VVEG144033
         K19G06A KC2019 04 09.30011014 39 48.00 +14 51 50.5          21.4 VuEG144H21
         K19G06A KC2019 04 09.30884314 39 50.47 +14 52 55.5          21.3 VuEG144H21
         K19G06A  C2019 04 09.31954214 39 54.98 +14 54 21.8          20.2 GVEG144H01
         K19G06A KC2019 04 09.32010314 39 53.65 +14 54 19.5          21.5 VuEG144H21
         K19G06A  C2019 04 09.32312314 39 55.99 +14 54 48.5          20.2 GVEG144H01
         K19G06A  C2019 04 09.33913914 40 00.49 +14 56 48.4          21.8 GVEG144H01
         K19G06A  C2019 04 09.34336014 40 01.67 +14 57 19.9          21.0 GVEG144H01
         K19G06A  C2019 04 09.58921 14 41 15.287+15 28 28.61         21.0 wUEG144F51
         K19G06A  C2019 04 09.59457 14 41 16.818+15 29 08.79         21.1 wUEG144F51
         K19G06A  C2019 04 09.59994 14 41 18.392+15 29 49.38         20.9 wUEG144F51
    
    Observer details:
    033 Karl Schwarzschild Observatory, Tautenburg.  Observers C. Hoegner,
        B. Stecklum.  Measurer B. Stecklum.  1.34-m f/3 Schmidt + CCD.
    F51 Pan-STARRS 1, Haleakala.  Observers J. Bulger, K. Chambers, T. Lowe,
        E. Magnier, A. Schultz, M. Willman.  Measurers S. Chastel, M. Huber,
        Y. Ramanjooloo, R. Wainscoat, R. Weryk, K. Chambers, T. de Boer,
        L. Denneau, J. Fairlamb, H. Flewelling, C.-C. Lin, E. Magnier.  1.8-m
        Ritchey-Chretien + CCD.
    H01 Magdalena Ridge Observatory, Socorro.  Observers W. H. Ryan, E. V. Ryan.
        Measurer W. H. Ryan.  2.4-m f/8.9 Ritchey-Chretien + CCD.
    H21 Astronomical Research Observatory, Westfield.  Observer R. Holmes.
        Measurers S. Foglia, L. Buzzi, T. Linder, R. Holmes.  0.76-m f/3.0
        astrograph + CCD.
    
    Orbital elements:
    2019 GA6                                                 Earth MOID = 0.0198 AU
    Epoch 2019 Apr. 27.0 TT = JDT 2458600.5                 MPC
    M 327.23517              (2000.0)            P               Q
    n   0.65476121     Peri.  104.22336     +0.21766014     +0.97601722
    a   1.3134516      Node   178.33408     -0.93831243     +0.21032042
    e   0.3534433      Incl.    7.51174     -0.26868913     +0.05617564
    P   1.51           H   24.5           G   0.15           U   7
    Residuals in seconds of arc
    190402 F51  0.2+  0.2+    190408 033  0.1-  0.2-    190409 H21  0.0   0.1+
    190402 F51  0.1-  0.1-    190408 033  0.3-  0.1-    190409 H01  0.0   0.0
    190402 F51  0.0   0.1-    190408 033  0.3-  0.1-    190409 H01  0.0   0.0
    190402 F51  0.2-  0.0     190408 033  0.3-  0.2-    190409 H01  0.1-  0.1-
    190408 F51  0.2+  0.0     190408 033  0.2+  0.2-    190409 F51  0.2+  0.2+
    190408 F51  0.0   0.1+    190408 033  0.1-  0.5-    190409 F51  0.1-  0.1-
    190408 F51  0.0   0.1+    190409 H21  0.2-  0.0     190409 F51  0.1+  0.0
    190408 033  0.2-  0.0     190409 H21  0.1-  0.0
    190408 033  0.1-  0.2-    190409 H01  0.0   0.1+
    
    Ephemeris:
    2019 GA6                 a,e,i = 1.31, 0.35, 8                   q = 0.8492
    Date    TT    R. A. (2000) Decl.     Delta      r     Elong.  Phase     V
    2019 03 10    13 28 36.9 -09 54 27   0.3200  1.2677   144.7    26.9    23.8
    ...
    2019 03 25    13 52 39.7 -03 52 26   0.2026  1.1841   155.2    20.7    22.4
    ...
    2019 04 02    14 11 38.0 +03 16 59   0.1503  1.1388   156.5    20.5    21.7
    ...
    2019 04 08    14 33 29.7 +12 18 35   0.1172  1.1048   150.8    26.2    21.3
    2019 04 09    14 38 16.4 +14 15 28   0.1123  1.0992   149.0    27.9    21.2
    2019 04 10    14 43 30.4 +16 21 25   0.1077  1.0936   147.0    29.9    21.2
    ...
    2019 04 16    15 29 27.3 +32 20 41   0.08589 1.0602   129.7    46.8    21.1
    ...
    2019 04 24    17 56 22.8 +56 09 09   0.07911 1.0170    96.1    79.5    21.8
    ...
    2019 05 09    23 13 54.2 +50 26 30   0.1288  0.9434    56.0   117.5    24.6
    
    A. U. Tomatic                (C) Copyright 2019 MPC           M.P.E.C. 2019-G144
    

    Read MPEC 2019-G143 Read MPEC 2019-G145


    MPEC number:

    Enter an MPEC number in one of the following forms:

    • 1997-B01 (the full form)
    • J97B01 (the packed version of the full form)
    • B01 (the abbreviated form)